Weather History for KSTC - July, 2013

Change the Weather History Date:

Wednesday, July 31, 2013

  Actual Average Record
Temperature  
Mean Temperature 67 °F 70 °F  
Max Temperature 81 °F 82 °F 102 °F (1988)
Min Temperature 53 °F 58 °F 44 °F (1992)
Degree Days  
Heating Degree Days 0 1  
Month to date heating degree days 26 17  
Since 1 June heating degree days 113 95  
Since 1 July heating degree days 26 17  
Cooling Degree Days 2 5  
Month to date cooling degree days 217 182  
Year to date cooling degree days 327 302  
Since 1 June cooling degree days 316 277  
Growing Degree Days 17 (Base 50)    
Moisture  
Dew Point 56 °F    
Average Humidity 66    
Maximum Humidity 100    
Minimum Humidity 32    
Precipitation  
Precipitation 0.00 in 0.11 in 1.22 in (1911)
Month to date precipitation 1.43 3.31  
Year to date precipitation 19.48 15.79  
Snow  
Snow 0.00 in 0.00 in 0.00 in ()
Month to date snowfall 0.0 0.0  
Since 1 June snowfall 0.0 0.0  
Since 1 July snowfall 0.0 0.0  
Snow Depth 0.00 in    
Sea Level Pressure  
Sea Level Pressure 30.06 in    
Wind  
Wind Speed 7 mph (WNW)    
Max Wind Speed 23 mph    
Max Gust Speed 30 mph    
Visibility 4 miles    
Events Fog    
T = Trace of Precipitation, MM = Missing Value Source: NWS Daily Summary

Daily Weather History Graph

Daily Weather History Graph

Search for Another Location

Airport or City:

Trip Planner

Search our weather history database for the weather conditions in past years. The results will help you decide how hot, cold, wet, or windy it might be!

Date:

Astronomy

Jul. 31, 2013 Rise Set
Actual Time 5:59 AM CDT 8:45 PM CDT
Civil Twilight 5:24 AM CDT 9:19 PM CDT
Nautical Twilight 4:41 AM CDT 10:02 PM CDT
Astronomical Twilight 3:50 AM CDT 10:53 PM CDT
Moon 12:55 AM CDT (7/31) 4:03 PM CDT (7/31)
Length of Visible Light 15h 54m
Length of Day
14h 46m
Waning Crescent, 31% of the Moon is Illuminated
Jul 31
Waning Crescent
Aug 6
New
Aug 14
First Quarter
Aug 20
Full
Aug 28
Last Quarter

Hourly Weather History & Observations

Time (CDT) Temp. Dew Point Humidity Pressure Visibility Wind Dir Wind Speed Gust Speed Precip Events Conditions
12:09 AM 59.0 °F 57.2 °F 94% 30.06 in 0.8 mi Calm Calm - N/A   Mist
12:27 AM 57.2 °F 57.2 °F 100% 30.07 in 2.0 mi SSW 3.5 mph - N/A   Partly Cloudy
12:34 AM 57.2 °F 57.2 °F 100% 30.07 in 6.0 mi Calm Calm - N/A   Partly Cloudy
12:41 AM 57.2 °F 57.2 °F 100% 30.07 in 1.8 mi Calm Calm - N/A   Partly Cloudy
12:51 AM 57.2 °F 57.2 °F 100% 30.07 in 0.8 mi Calm Calm - N/A   Clear
12:53 AM 57.9 °F 57.9 °F 100% 30.09 in 0.8 mi Calm Calm - N/A   Clear
1:15 AM 57.2 °F 57.2 °F 100% 30.07 in 0.5 mi Calm Calm - N/A Fog Fog
2:11 AM 57.2 °F 57.2 °F 100% 30.06 in 0.5 mi Calm Calm - N/A Fog Fog
2:18 AM 57.2 °F 57.2 °F 100% 30.06 in 0.2 mi Calm Calm - N/A Fog Fog
2:29 AM 59.0 °F 59.0 °F 100% 30.06 in 0.5 mi Calm Calm - N/A Fog Fog
2:36 AM 57.2 °F 57.2 °F 100% 30.06 in 0.2 mi Calm Calm - N/A Fog Fog
2:53 AM 57.9 °F 57.9 °F 100% 30.08 in 0.2 mi Calm Calm - N/A Fog Fog
3:37 AM 57.2 °F 55.4 °F 94% 30.05 in 1.0 mi Calm Calm - N/A   Mist
3:45 AM 55.4 °F 55.4 °F 100% 30.05 in 0.2 mi Calm Calm - N/A Fog Fog
3:53 AM 57.0 °F 57.0 °F 100% 30.08 in 0.2 mi Calm Calm - N/A Fog Fog
4:03 AM 55.4 °F 55.4 °F 100% 30.06 in 0.5 mi Calm Calm - N/A Fog Fog
4:07 AM 55.4 °F 55.4 °F 100% 30.07 in 1.2 mi Calm Calm - N/A   Partly Cloudy
4:10 AM 55.4 °F 55.4 °F 100% 30.07 in 3.0 mi WSW 3.5 mph - N/A   Clear
4:53 AM 60.1 °F 60.1 °F 100% 30.09 in 5.0 mi WSW 3.5 mph - N/A   Scattered Clouds
5:30 AM 57.2 °F 57.2 °F 100% 30.05 in 2.0 mi Calm Calm - N/A   Clear
5:39 AM 57.2 °F 57.2 °F 100% 30.06 in 1.0 mi Calm Calm - N/A   Clear
5:47 AM 59.0 °F 59.0 °F 100% 30.05 in 3.0 mi Calm Calm - N/A   Clear
5:53 AM 59.0 °F 59.0 °F 100% 30.08 in 3.0 mi NNW 3.5 mph - N/A   Clear
6:00 AM 57.2 °F 57.2 °F 100% 30.06 in 2.5 mi Calm Calm - N/A   Clear
6:25 AM 57.2 °F 57.2 °F 100% 30.06 in 1.8 mi Calm Calm - N/A   Clear
6:53 AM 57.9 °F 57.9 °F 100% 30.09 in 1.5 mi Calm Calm - N/A   Clear
7:08 AM 59.0 °F 59.0 °F 100% 30.06 in 2.5 mi Calm Calm - N/A   Clear
7:19 AM 60.8 °F 59.0 °F 94% 30.06 in 1.8 mi Calm Calm - N/A   Clear
7:33 AM 60.8 °F 60.8 °F 100% 30.06 in 2.0 mi Calm Calm - N/A   Clear
7:49 AM 62.6 °F 60.8 °F 94% 30.06 in 3.0 mi Calm Calm - N/A   Clear
7:53 AM 62.1 °F 62.1 °F 100% 30.09 in 3.0 mi Calm Calm - N/A   Clear
8:53 AM 64.9 °F 63.0 °F 93% 30.10 in 8.0 mi WNW 6.9 mph - N/A   Partly Cloudy
9:53 AM 66.9 °F 61.0 °F 81% 30.09 in 10.0 mi NNW 3.5 mph - N/A   Clear
10:53 AM 73.0 °F 57.0 °F 57% 30.08 in 10.0 mi NNW 9.2 mph - N/A   Clear
11:53 AM 72.0 °F 59.0 °F 64% 30.08 in 10.0 mi WNW 5.8 mph - N/A   Scattered Clouds
12:53 PM 77.0 °F 55.9 °F 48% 30.07 in 10.0 mi WNW 12.7 mph 16.1 mph N/A   Mostly Cloudy
1:53 PM 77.0 °F 52.0 °F 42% 30.06 in 10.0 mi West 11.5 mph - N/A   Mostly Cloudy
2:53 PM 78.1 °F 51.1 °F 39% 30.05 in 10.0 mi WNW 13.8 mph - N/A   Mostly Cloudy
3:53 PM 79.0 °F 48.0 °F 34% 30.04 in 10.0 mi NW 17.3 mph 25.3 mph N/A   Clear
4:53 PM 78.1 °F 46.9 °F 33% 30.03 in 10.0 mi NW 18.4 mph 24.2 mph N/A   Partly Cloudy
5:53 PM 78.1 °F 46.9 °F 33% 30.02 in 10.0 mi WNW 15.0 mph 29.9 mph N/A   Partly Cloudy
6:53 PM 75.9 °F 46.0 °F 35% 30.02 in 10.0 mi WNW 20.7 mph 28.8 mph N/A   Clear
7:53 PM 72.0 °F 46.0 °F 40% 30.02 in 10.0 mi NW 16.1 mph 20.7 mph N/A   Clear
8:53 PM 66.0 °F 48.0 °F 52% 30.03 in 10.0 mi NW 5.8 mph - N/A   Clear
9:53 PM 62.1 °F 48.9 °F 62% 30.05 in 10.0 mi NW 5.8 mph - N/A   Clear
10:53 PM 59.0 °F 48.9 °F 69% 30.06 in 10.0 mi WNW 4.6 mph - N/A   Clear
11:53 PM 57.0 °F 48.9 °F 74% 30.05 in 10.0 mi Calm Calm - N/A   Clear